Time,TemperatureF,DewpointF,PressureIn,WindDirection,WindDirectionDegrees,WindSpeedMPH,WindSpeedGustMPH,Humidity,HourlyPrecipIn,Conditions,Clouds,dailyrainin,SoftwareType,DateUTC
2013-02-11 00:00:00,30.6,18.4,30.24,West,263,0.0,0.0,60,0.00,,---,0.06,VWS V13.01,2013-02-11 05:00:00,
2013-02-11 00:05:00,30.6,18.4,30.24,West,263,0.0,0.0,60,0.00,,---,0.06,VWS V13.01,2013-02-11 05:05:00,
2013-02-11 00:10:00,30.4,18.2,30.24,West,263,0.0,0.0,60,0.00,,---,0.06,VWS V13.01,2013-02-11 05:10:00,
2013-02-11 00:15:00,30.4,18.2,30.23,West,263,0.0,0.0,60,0.00,,---,0.06,VWS V13.01,2013-02-11 05:15:00,
2013-02-11 00:20:00,30.4,18.2,30.23,West,263,0.0,0.0,60,0.00,,---,0.06,VWS V13.01,2013-02-11 05:20:00,
2013-02-11 00:25:00,30.4,18.2,30.23,West,263,0.0,0.0,60,0.00,,---,0.06,VWS V13.01,2013-02-11 05:25:00,
2013-02-11 00:30:00,30.6,18.4,30.23,West,263,0.0,0.0,60,0.00,,---,0.06,VWS V13.01,2013-02-11 05:30:00,
2013-02-11 00:35:00,30.6,18.4,30.23,West,263,0.0,0.0,60,0.00,,---,0.06,VWS V13.01,2013-02-11 05:35:00,
2013-02-11 00:40:00,30.6,18.4,30.23,West,263,0.0,0.0,60,0.00,,---,0.06,VWS V13.01,2013-02-11 05:40:00,
2013-02-11 00:45:00,30.6,18.4,30.21,West,263,0.0,0.0,60,0.00,,---,0.00,VWS V13.01,2013-02-11 05:45:00,
2013-02-11 00:50:00,30.4,18.2,30.21,West,263,0.0,0.0,60,0.00,,---,0.00,VWS V13.01,2013-02-11 05:50:00,
2013-02-11 00:55:00,30.3,18.5,30.21,West,263,0.0,0.0,61,0.00,,---,0.00,VWS V13.01,2013-02-11 05:55:00,
2013-02-11 01:00:00,30.3,18.5,30.21,West,263,0.0,0.0,61,0.00,,---,0.00,VWS V13.01,2013-02-11 06:00:00,
2013-02-11 01:05:00,30.3,18.9,30.21,West,263,0.0,0.0,62,0.00,,---,0.00,VWS V13.01,2013-02-11 06:05:00,
2013-02-11 01:10:00,30.3,18.9,30.21,West,263,0.0,0.0,62,0.00,,---,0.00,VWS V13.01,2013-02-11 06:10:00,
2013-02-11 01:15:00,30.1,18.7,30.20,West,263,0.0,0.0,62,0.00,,---,0.00,VWS V13.01,2013-02-11 06:15:00,
2013-02-11 01:20:00,30.0,19.0,30.20,West,263,0.0,0.0,63,0.00,,---,0.00,VWS V13.01,2013-02-11 06:20:00,
2013-02-11 01:25:00,29.8,19.5,30.20,West,263,0.0,0.0,65,0.00,,---,0.00,VWS V13.01,2013-02-11 06:25:00,
2013-02-11 01:30:00,29.4,19.5,30.20,West,263,0.0,0.0,66,0.00,,---,0.00,VWS V13.01,2013-02-11 06:30:00,
2013-02-11 01:35:00,29.0,19.1,30.20,West,263,0.0,0.0,66,0.00,,---,0.00,VWS V13.01,2013-02-11 06:35:00,
2013-02-11 01:40:00,28.8,19.2,30.20,West,263,0.0,0.0,67,0.00,,---,0.00,VWS V13.01,2013-02-11 06:40:00,
2013-02-11 01:45:00,28.8,19.2,30.20,West,263,0.0,0.0,67,0.00,,---,0.00,VWS V13.01,2013-02-11 06:45:00,
2013-02-11 01:50:00,28.8,19.2,30.20,West,263,1.0,2.0,67,0.00,,---,0.00,VWS V13.01,2013-02-11 06:50:00,
2013-02-11 01:55:00,28.7,19.5,30.20,West,263,0.0,2.0,68,0.00,,---,0.00,VWS V13.01,2013-02-11 06:55:00,
2013-02-11 02:00:00,28.7,19.5,30.19,West,263,0.0,0.0,68,0.00,,---,0.00,VWS V13.01,2013-02-11 07:00:00,
2013-02-11 02:05:00,28.8,19.6,30.19,West,263,0.0,1.0,68,0.00,,---,0.00,VWS V13.01,2013-02-11 07:05:00,
2013-02-11 02:10:00,28.8,19.6,30.19,West,263,0.0,1.0,68,0.00,,---,0.00,VWS V13.01,2013-02-11 07:10:00,
2013-02-11 02:15:00,28.8,19.9,30.18,West,263,0.0,2.0,69,0.00,,---,0.00,VWS V13.01,2013-02-11 07:15:00,
2013-02-11 02:20:00,28.8,19.9,30.18,West,263,0.0,2.0,69,0.00,,---,0.00,VWS V13.01,2013-02-11 07:20:00,
2013-02-11 02:25:00,28.8,19.9,30.18,West,263,0.0,2.0,69,0.00,,---,0.00,VWS V13.01,2013-02-11 07:25:00,
2013-02-11 02:30:00,28.8,20.3,30.18,West,263,0.0,0.0,70,0.00,,---,0.00,VWS V13.01,2013-02-11 07:30:00,
2013-02-11 02:35:00,28.8,20.6,30.18,West,263,0.0,0.0,71,0.00,,---,0.00,VWS V13.01,2013-02-11 07:35:00,
2013-02-11 02:40:00,28.8,20.6,30.18,West,263,0.0,0.0,71,0.00,,---,0.00,VWS V13.01,2013-02-11 07:40:00,
2013-02-11 02:45:00,28.8,20.6,30.17,West,263,0.0,0.0,71,0.00,,---,0.00,VWS V13.01,2013-02-11 07:45:00,
2013-02-11 02:50:00,28.8,20.6,30.17,West,263,0.0,0.0,71,0.00,,---,0.00,VWS V13.01,2013-02-11 07:50:00,
2013-02-11 02:55:00,28.8,20.6,30.17,West,263,0.0,0.0,71,0.00,,---,0.00,VWS V13.01,2013-02-11 07:55:00,
2013-02-11 03:00:00,28.8,20.6,30.16,West,263,0.0,0.0,71,0.00,,---,0.00,VWS V13.01,2013-02-11 08:00:00,
2013-02-11 03:05:00,28.7,20.8,30.16,West,263,2.0,2.0,72,0.00,,---,0.00,VWS V13.01,2013-02-11 08:05:00,
2013-02-11 03:10:00,28.7,20.8,30.16,West,263,0.0,2.0,72,0.00,,---,0.00,VWS V13.01,2013-02-11 08:10:00,
2013-02-11 03:15:00,28.7,20.8,30.15,West,265,1.0,2.0,72,0.00,,---,0.00,VWS V13.01,2013-02-11 08:15:00,
2013-02-11 03:20:00,28.8,20.9,30.15,West,265,0.0,2.0,72,0.00,,---,0.00,VWS V13.01,2013-02-11 08:20:00,
2013-02-11 03:25:00,29.0,21.1,30.15,West,265,0.0,2.0,72,0.00,,---,0.00,VWS V13.01,2013-02-11 08:25:00,
2013-02-11 03:30:00,28.8,21.2,30.13,West,265,0.0,1.0,73,0.00,,---,0.00,VWS V13.01,2013-02-11 08:30:00,
2013-02-11 03:35:00,28.8,21.6,30.13,West,265,1.0,1.0,74,0.00,,---,0.00,VWS V13.01,2013-02-11 08:35:00,
2013-02-11 03:40:00,28.8,21.6,30.13,West,265,1.0,2.0,74,0.00,,---,0.00,VWS V13.01,2013-02-11 08:40:00,
2013-02-11 03:45:00,29.0,21.8,30.12,West,265,0.0,1.0,74,0.00,,---,0.00,VWS V13.01,2013-02-11 08:45:00,
2013-02-11 03:50:00,29.1,21.9,30.12,West,265,0.0,1.0,74,0.00,,---,0.00,VWS V13.01,2013-02-11 08:50:00,
2013-02-11 03:55:00,29.1,21.9,30.12,West,265,0.0,2.0,74,0.00,,---,0.00,VWS V13.01,2013-02-11 08:55:00,
2013-02-11 04:00:00,29.1,21.9,30.12,West,265,0.0,2.0,74,0.00,,---,0.00,VWS V13.01,2013-02-11 09:00:00,
2013-02-11 04:05:00,29.1,21.9,30.12,West,265,0.0,2.0,74,0.00,,---,0.00,VWS V13.01,2013-02-11 09:05:00,
2013-02-11 04:10:00,29.1,22.2,30.12,West,265,2.0,3.0,75,0.00,,---,0.00,VWS V13.01,2013-02-11 09:10:00,
2013-02-11 04:15:00,29.1,21.9,30.11,West,265,0.0,2.0,74,0.00,,---,0.00,VWS V13.01,2013-02-11 09:15:00,
2013-02-11 04:20:00,29.1,21.9,30.11,West,265,0.0,2.0,74,0.00,,---,0.00,VWS V13.01,2013-02-11 09:20:00,
2013-02-11 04:25:00,29.3,22.1,30.11,West,265,1.0,2.0,74,0.00,,---,0.00,VWS V13.01,2013-02-11 09:25:00,
2013-02-11 04:30:00,29.3,22.1,30.10,West,265,0.0,1.0,74,0.00,,---,0.00,VWS V13.01,2013-02-11 09:30:00,
2013-02-11 04:35:00,29.3,22.1,30.10,West,265,0.0,2.0,74,0.00,,---,0.00,VWS V13.01,2013-02-11 09:35:00,
2013-02-11 04:40:00,29.3,22.1,30.10,West,265,0.0,2.0,74,0.00,,---,0.00,VWS V13.01,2013-02-11 09:40:00,
2013-02-11 04:45:00,29.3,22.4,30.09,West,265,0.0,2.0,75,0.00,,---,0.00,VWS V13.01,2013-02-11 09:45:00,
2013-02-11 04:50:00,29.4,22.8,30.09,West,265,0.0,2.0,76,0.00,,---,0.00,VWS V13.01,2013-02-11 09:50:00,
2013-02-11 04:55:00,29.4,23.1,30.09,West,265,1.0,2.0,77,0.00,,---,0.00,VWS V13.01,2013-02-11 09:55:00,
2013-02-11 05:00:00,29.4,23.1,30.08,West,265,1.0,1.0,77,0.00,,---,0.00,VWS V13.01,2013-02-11 10:00:00,
2013-02-11 05:05:00,29.5,23.2,30.08,West,265,0.0,2.0,77,0.00,,---,0.00,VWS V13.01,2013-02-11 10:05:00,
2013-02-11 05:10:00,29.5,23.5,30.08,West,265,0.0,2.0,78,0.00,,---,0.00,VWS V13.01,2013-02-11 10:10:00,
2013-02-11 05:15:00,29.5,23.8,30.08,West,265,0.0,1.0,79,0.00,,---,0.00,VWS V13.01,2013-02-11 10:15:00,
2013-02-11 05:20:00,29.5,23.8,30.08,West,265,0.0,3.0,79,0.00,,---,0.00,VWS V13.01,2013-02-11 10:20:00,
2013-02-11 05:25:00,29.7,24.0,30.08,West,265,0.0,3.0,79,0.00,,---,0.00,VWS V13.01,2013-02-11 10:25:00,
2013-02-11 05:30:00,29.7,24.3,30.08,West,265,0.0,0.0,80,0.00,,---,0.00,VWS V13.01,2013-02-11 10:30:00,
2013-02-11 05:35:00,29.8,24.7,30.08,West,265,1.0,2.0,81,0.00,,---,0.00,VWS V13.01,2013-02-11 10:35:00,
2013-02-11 05:40:00,29.7,24.9,30.08,West,265,0.0,2.0,82,0.00,,---,0.00,VWS V13.01,2013-02-11 10:40:00,
2013-02-11 05:45:00,29.7,25.2,30.07,West,265,1.0,2.0,83,0.00,,---,0.00,VWS V13.01,2013-02-11 10:45:00,
2013-02-11 05:50:00,29.7,25.2,30.07,West,265,0.0,3.0,83,0.00,,---,0.00,VWS V13.01,2013-02-11 10:50:00,
2013-02-11 05:55:00,29.8,25.6,30.07,West,265,0.0,3.0,84,0.00,,---,0.00,VWS V13.01,2013-02-11 10:55:00,
2013-02-11 06:00:00,29.8,25.9,30.05,West,265,0.0,2.0,85,0.00,,---,0.00,VWS V13.01,2013-02-11 11:00:00,
2013-02-11 06:05:00,29.8,26.1,30.05,West,265,0.0,2.0,86,0.00,,---,0.00,VWS V13.01,2013-02-11 11:05:00,
2013-02-11 06:10:00,29.8,26.4,30.05,West,265,0.0,2.0,87,0.00,,---,0.00,VWS V13.01,2013-02-11 11:10:00,
2013-02-11 06:15:00,29.8,26.4,30.04,West,265,2.0,3.0,87,0.00,,---,0.00,VWS V13.01,2013-02-11 11:15:00,
2013-02-11 06:20:00,29.8,26.7,30.04,ESE,105,0.0,4.0,88,0.00,,---,0.00,VWS V13.01,2013-02-11 11:20:00,
2013-02-11 06:25:00,29.8,27.0,30.04,ESE,104,0.0,4.0,89,0.00,,---,0.00,VWS V13.01,2013-02-11 11:25:00,
2013-02-11 06:29:00,30.0,27.2,30.03,ESE,104,0.0,3.0,89,0.00,,---,0.00,VWS V13.01,2013-02-11 11:29:00,
2013-02-11 06:34:00,30.0,27.4,30.03,East,94,2.0,5.0,90,0.00,,---,0.00,VWS V13.01,2013-02-11 11:34:00,
2013-02-11 06:39:00,30.1,27.8,30.03,East,92,1.0,5.0,91,0.00,,---,0.00,VWS V13.01,2013-02-11 11:39:00,
2013-02-11 06:44:00,30.3,28.0,30.00,East,92,0.0,0.0,91,0.00,,---,0.00,VWS V13.01,2013-02-11 11:44:00,
2013-02-11 06:49:00,30.4,28.4,30.00,East,92,0.0,4.0,92,0.00,,---,0.00,VWS V13.01,2013-02-11 11:49:00,
2013-02-11 06:54:00,30.6,28.6,30.00,East,89,1.0,4.0,92,0.00,,---,0.00,VWS V13.01,2013-02-11 11:54:00,
2013-02-11 06:59:00,30.7,28.7,29.99,East,89,0.0,2.0,92,0.00,,---,0.00,VWS V13.01,2013-02-11 11:59:00,
2013-02-11 07:04:00,30.9,29.1,29.99,East,79,2.0,4.0,93,0.00,,---,0.00,VWS V13.01,2013-02-11 12:04:00,
2013-02-11 07:09:00,31.0,29.2,29.99,East,79,0.0,4.0,93,0.00,,---,0.00,VWS V13.01,2013-02-11 12:09:00,
2013-02-11 07:14:00,31.2,29.7,29.97,East,79,1.0,4.0,94,0.00,,---,0.00,VWS V13.01,2013-02-11 12:14:00,
2013-02-11 07:19:00,31.3,29.8,29.97,East,79,0.0,4.0,94,0.00,,---,0.00,VWS V13.01,2013-02-11 12:19:00,
2013-02-11 07:24:00,31.3,29.8,29.97,ENE,78,2.0,4.0,94,0.00,,---,0.00,VWS V13.01,2013-02-11 12:24:00,
2013-02-11 07:29:00,31.5,30.0,29.98,ENE,78,0.0,2.0,94,0.00,,---,0.00,VWS V13.01,2013-02-11 12:29:00,
2013-02-11 07:34:00,31.6,30.3,29.98,ENE,78,0.0,2.0,95,0.00,,---,0.00,VWS V13.01,2013-02-11 12:34:00,
2013-02-11 07:39:00,31.6,30.3,29.98,ENE,78,0.0,2.0,95,0.00,,---,0.00,VWS V13.01,2013-02-11 12:39:00,
2013-02-11 07:44:00,31.6,30.3,29.97,ENE,78,2.0,3.0,95,0.00,,---,0.00,VWS V13.01,2013-02-11 12:44:00,
2013-02-11 07:49:00,31.8,30.5,29.97,ENE,78,0.0,3.0,95,0.00,,---,0.00,VWS V13.01,2013-02-11 12:49:00,
2013-02-11 07:54:00,31.8,30.5,29.97,ENE,78,2.0,3.0,95,0.00,,---,0.00,VWS V13.01,2013-02-11 12:54:00,
2013-02-11 07:59:00,31.9,30.6,29.97,ENE,78,0.0,0.0,95,0.00,,---,0.00,VWS V13.01,2013-02-11 12:59:00,
2013-02-11 08:04:00,31.9,30.9,29.97,ENE,78,0.0,2.0,96,0.00,,---,0.00,VWS V13.01,2013-02-11 13:04:00,
2013-02-11 08:09:00,31.9,30.9,29.97,ENE,78,3.0,4.0,96,0.00,,---,0.00,VWS V13.01,2013-02-11 13:09:00,
2013-02-11 08:14:00,32.1,31.1,29.96,ENE,76,2.0,3.0,96,0.00,,---,0.00,VWS V13.01,2013-02-11 13:14:00,
2013-02-11 08:19:00,32.1,31.1,29.96,NNE,12,4.0,5.0,96,0.00,,---,0.00,VWS V13.01,2013-02-11 13:19:00,
2013-02-11 08:24:00,32.2,31.2,29.96,North,11,1.0,5.0,96,0.00,,---,0.00,VWS V13.01,2013-02-11 13:24:00,
2013-02-11 08:29:00,32.2,31.2,29.95,North,11,0.0,1.0,96,0.00,,---,0.00,VWS V13.01,2013-02-11 13:29:00,
2013-02-11 08:34:00,32.2,31.2,29.95,North,11,0.0,1.0,96,0.00,,---,0.00,VWS V13.01,2013-02-11 13:34:00,
2013-02-11 08:39:00,32.4,31.4,29.95,North,11,0.0,1.0,96,0.00,,---,0.00,VWS V13.01,2013-02-11 13:39:00,
2013-02-11 08:45:00,32.4,31.4,29.95,North,11,2.0,4.0,96,0.00,,---,0.00,VWS V13.01,2013-02-11 13:45:00,
2013-02-11 08:49:00,32.4,31.4,29.95,North,11,0.0,4.0,96,0.00,,---,0.00,VWS V13.01,2013-02-11 13:49:00,
2013-02-11 08:54:00,32.5,31.5,29.95,North,11,0.0,4.0,96,0.00,,---,0.00,VWS V13.01,2013-02-11 13:54:00,
2013-02-11 08:59:00,32.5,31.5,29.94,North,11,0.0,0.0,96,0.00,,---,0.00,VWS V13.01,2013-02-11 13:59:00,
2013-02-11 09:04:00,32.5,31.5,29.94,North,11,0.0,0.0,96,0.00,,---,0.00,VWS V13.01,2013-02-11 14:04:00,
2013-02-11 09:09:00,32.7,31.7,29.94,North,11,0.0,0.0,96,0.00,,---,0.00,VWS V13.01,2013-02-11 14:09:00,
2013-02-11 09:14:00,32.7,31.7,29.93,North,11,0.0,0.0,96,0.00,,---,0.00,VWS V13.01,2013-02-11 14:14:00,
2013-02-11 09:19:00,32.7,31.7,29.93,North,11,0.0,0.0,96,0.00,,---,0.00,VWS V13.01,2013-02-11 14:19:00,
2013-02-11 09:24:00,32.7,31.7,29.93,North,11,0.0,0.0,96,0.00,,---,0.00,VWS V13.01,2013-02-11 14:24:00,
2013-02-11 09:29:00,32.7,31.7,29.92,North,11,0.0,0.0,96,0.00,,---,0.00,VWS V13.01,2013-02-11 14:29:00,
2013-02-11 09:34:00,32.7,31.7,29.92,North,11,0.0,0.0,96,0.00,,---,0.00,VWS V13.01,2013-02-11 14:34:00,
2013-02-11 09:39:00,32.5,31.5,29.92,North,11,0.0,0.0,96,0.00,,---,0.00,VWS V13.01,2013-02-11 14:39:00,
2013-02-11 09:44:00,32.5,31.5,29.91,North,11,0.0,0.0,96,0.00,,---,0.00,VWS V13.01,2013-02-11 14:44:00,
2013-02-11 09:49:00,32.7,31.9,29.91,North,11,0.0,0.0,97,0.00,,---,0.00,VWS V13.01,2013-02-11 14:49:00,
2013-02-11 09:54:00,32.7,31.9,29.91,North,11,0.0,0.0,97,0.00,,---,0.00,VWS V13.01,2013-02-11 14:54:00,
2013-02-11 09:59:00,32.8,32.0,29.90,North,11,0.0,0.0,97,0.00,,---,0.00,VWS V13.01,2013-02-11 14:59:00,
2013-02-11 10:04:00,32.9,32.1,29.90,North,11,0.0,0.0,97,0.00,,---,0.00,VWS V13.01,2013-02-11 15:04:00,
2013-02-11 10:09:00,33.1,32.3,29.90,North,11,0.0,0.0,97,0.00,,---,0.00,VWS V13.01,2013-02-11 15:09:00,
2013-02-11 10:14:00,33.2,32.4,29.90,North,11,0.0,0.0,97,0.00,,---,0.00,VWS V13.01,2013-02-11 15:14:00,
2013-02-11 10:19:00,33.1,32.3,29.90,North,11,0.0,0.0,97,0.00,,---,0.00,VWS V13.01,2013-02-11 15:19:00,
2013-02-11 10:24:00,33.1,32.3,29.90,North,11,0.0,0.0,97,0.00,,---,0.00,VWS V13.01,2013-02-11 15:24:00,
2013-02-11 10:29:00,32.8,32.0,29.89,North,11,0.0,0.0,97,0.00,,---,0.00,VWS V13.01,2013-02-11 15:29:00,
2013-02-11 10:34:00,32.8,32.0,29.89,North,11,0.0,0.0,97,0.00,,---,0.00,VWS V13.01,2013-02-11 15:34:00,
2013-02-11 10:39:00,32.8,32.0,29.89,North,11,0.0,0.0,97,0.01,,---,0.01,VWS V13.01,2013-02-11 15:39:00,
2013-02-11 10:44:00,32.9,32.1,29.89,North,11,0.0,0.0,97,0.01,,---,0.01,VWS V13.01,2013-02-11 15:44:00,
2013-02-11 10:49:00,32.9,32.1,29.89,North,11,0.0,0.0,97,0.01,,---,0.01,VWS V13.01,2013-02-11 15:49:00,
2013-02-11 10:54:00,33.1,32.3,29.89,North,11,0.0,0.0,97,0.01,,---,0.01,VWS V13.01,2013-02-11 15:54:00,
2013-02-11 10:59:00,33.1,32.3,29.89,North,11,0.0,0.0,97,0.01,,---,0.01,VWS V13.01,2013-02-11 15:59:00,
2013-02-11 11:04:00,33.1,32.3,29.89,North,11,0.0,0.0,97,0.01,,---,0.01,VWS V13.01,2013-02-11 16:04:00,
2013-02-11 11:09:00,33.2,32.4,29.89,North,11,0.0,0.0,97,0.01,,---,0.01,VWS V13.01,2013-02-11 16:09:00,
2013-02-11 11:14:00,33.2,32.4,29.86,North,11,0.0,0.0,97,0.01,,---,0.01,VWS V13.01,2013-02-11 16:14:00,
2013-02-11 11:19:00,32.9,32.1,29.86,North,11,0.0,0.0,97,0.01,,---,0.01,VWS V13.01,2013-02-11 16:19:00,
2013-02-11 11:24:00,32.9,32.1,29.86,North,11,0.0,0.0,97,0.01,,---,0.01,VWS V13.01,2013-02-11 16:24:00,
2013-02-11 11:29:00,33.1,32.3,29.85,North,11,0.0,0.0,97,0.01,,---,0.01,VWS V13.01,2013-02-11 16:29:00,
2013-02-11 11:34:00,33.1,32.3,29.85,North,11,0.0,0.0,97,0.01,,---,0.01,VWS V13.01,2013-02-11 16:34:00,
2013-02-11 11:39:00,33.2,32.4,29.85,North,11,0.0,0.0,97,0.01,,---,0.01,VWS V13.01,2013-02-11 16:39:00,
2013-02-11 11:44:00,33.4,32.6,29.84,North,11,0.0,0.0,97,0.00,,---,0.01,VWS V13.01,2013-02-11 16:44:00,
2013-02-11 11:49:00,33.4,32.6,29.84,North,11,0.0,0.0,97,0.00,,---,0.01,VWS V13.01,2013-02-11 16:49:00,
2013-02-11 11:54:00,33.8,33.0,29.84,North,11,0.0,0.0,97,0.01,,---,0.02,VWS V13.01,2013-02-11 16:54:00,
2013-02-11 11:59:00,34.1,33.3,29.83,North,11,0.0,0.0,97,0.01,,---,0.02,VWS V13.01,2013-02-11 16:59:00,
2013-02-11 12:04:00,34.4,33.6,29.83,North,11,0.0,0.0,97,0.01,,---,0.02,VWS V13.01,2013-02-11 17:04:00,
2013-02-11 12:09:00,34.6,33.8,29.83,North,11,0.0,0.0,97,0.01,,---,0.02,VWS V13.01,2013-02-11 17:09:00,
2013-02-11 12:14:00,34.7,33.9,29.81,North,11,0.0,0.0,97,0.01,,---,0.02,VWS V13.01,2013-02-11 17:14:00,
2013-02-11 12:19:00,34.7,33.9,29.81,North,11,0.0,0.0,97,0.01,,---,0.02,VWS V13.01,2013-02-11 17:19:00,
2013-02-11 12:24:00,34.9,34.1,29.81,North,11,0.0,0.0,97,0.01,,---,0.02,VWS V13.01,2013-02-11 17:24:00,
2013-02-11 12:29:00,35.0,34.2,29.80,North,11,0.0,0.0,97,0.01,,---,0.02,VWS V13.01,2013-02-11 17:29:00,
2013-02-11 12:34:00,34.7,33.9,29.80,North,11,0.0,0.0,97,0.01,,---,0.02,VWS V13.01,2013-02-11 17:34:00,
2013-02-11 12:39:00,34.7,33.9,29.80,North,11,0.0,0.0,97,0.01,,---,0.02,VWS V13.01,2013-02-11 17:39:00,
2013-02-11 12:44:00,35.0,34.2,29.78,North,11,0.0,0.0,97,0.01,,---,0.02,VWS V13.01,2013-02-11 17:44:00,
2013-02-11 12:49:00,35.2,34.4,29.78,North,11,0.0,0.0,97,0.01,,---,0.02,VWS V13.01,2013-02-11 17:49:00,
2013-02-11 12:54:00,35.5,34.7,29.78,North,11,0.0,0.0,97,0.01,,---,0.02,VWS V13.01,2013-02-11 17:54:00,
2013-02-11 12:59:00,35.9,35.4,29.77,North,11,0.0,0.0,98,0.00,,---,0.02,VWS V13.01,2013-02-11 17:59:00,
2013-02-11 13:04:00,36.0,35.5,29.77,North,11,0.0,0.0,98,0.00,,---,0.02,VWS V13.01,2013-02-11 18:04:00,
2013-02-11 13:09:00,36.0,35.5,29.77,North,11,0.0,0.0,98,0.00,,---,0.02,VWS V13.01,2013-02-11 18:09:00,
2013-02-11 13:14:00,36.2,35.7,29.75,North,11,0.0,0.0,98,0.00,,---,0.02,VWS V13.01,2013-02-11 18:14:00,
2013-02-11 13:19:00,36.8,36.3,29.75,North,11,0.0,0.0,98,0.00,,---,0.02,VWS V13.01,2013-02-11 18:19:00,
2013-02-11 13:24:00,37.0,36.5,29.75,North,11,0.0,0.0,98,0.00,,---,0.02,VWS V13.01,2013-02-11 18:24:00,
2013-02-11 13:29:00,37.2,36.7,29.74,North,11,0.0,0.0,98,0.00,,---,0.02,VWS V13.01,2013-02-11 18:29:00,
2013-02-11 13:34:00,37.5,37.0,29.74,North,11,0.0,0.0,98,0.00,,---,0.02,VWS V13.01,2013-02-11 18:34:00,
2013-02-11 13:39:00,37.3,36.8,29.74,North,11,0.0,0.0,98,0.00,,---,0.02,VWS V13.01,2013-02-11 18:39:00,
2013-02-11 13:44:00,37.5,37.0,29.73,North,11,0.0,0.0,98,0.00,,---,0.02,VWS V13.01,2013-02-11 18:44:00,
2013-02-11 13:49:00,37.6,37.1,29.73,North,11,0.0,0.0,98,0.00,,---,0.02,VWS V13.01,2013-02-11 18:49:00,
2013-02-11 13:54:00,37.6,37.1,29.73,North,11,1.0,3.0,98,0.00,,---,0.02,VWS V13.01,2013-02-11 18:54:00,
2013-02-11 13:59:00,37.8,37.3,29.73,North,11,1.0,2.0,98,0.00,,---,0.02,VWS V13.01,2013-02-11 18:59:00,
2013-02-11 14:04:00,37.8,37.3,29.73,North,11,0.0,2.0,98,0.00,,---,0.02,VWS V13.01,2013-02-11 19:04:00,
2013-02-11 14:09:00,38.0,37.5,29.73,North,11,0.0,2.0,98,0.00,,---,0.02,VWS V13.01,2013-02-11 19:09:00,
2013-02-11 14:14:00,38.2,37.7,29.72,North,11,0.0,0.0,98,0.00,,---,0.02,VWS V13.01,2013-02-11 19:14:00,
2013-02-11 14:19:00,38.3,37.8,29.72,North,11,0.0,0.0,98,0.00,,---,0.02,VWS V13.01,2013-02-11 19:19:00,
2013-02-11 14:24:00,38.3,37.8,29.72,North,11,0.0,0.0,98,0.00,,---,0.02,VWS V13.01,2013-02-11 19:24:00,
2013-02-11 14:29:00,38.5,38.0,29.71,North,11,0.0,0.0,98,0.00,,---,0.02,VWS V13.01,2013-02-11 19:29:00,
2013-02-11 14:34:00,38.5,38.0,29.71,North,11,0.0,0.0,98,0.00,,---,0.02,VWS V13.01,2013-02-11 19:34:00,
2013-02-11 14:48:00,38.8,38.3,29.70,North,11,0.0,0.0,98,0.00,,---,0.02,VWS V13.01,2013-02-11 19:48:00,
2013-02-11 14:53:00,38.8,38.3,29.70,North,11,0.0,0.0,98,0.00,,---,0.02,VWS V13.01,2013-02-11 19:53:00,
2013-02-11 14:58:00,38.5,38.0,29.69,North,11,0.0,0.0,98,0.00,,---,0.02,VWS V13.01,2013-02-11 19:58:00,
2013-02-11 15:03:00,38.5,38.0,29.69,North,11,0.0,0.0,98,0.00,,---,0.02,VWS V13.01,2013-02-11 20:03:00,
2013-02-11 15:08:00,38.6,38.1,29.69,North,11,0.0,0.0,98,0.00,,---,0.02,VWS V13.01,2013-02-11 20:08:00,
2013-02-11 15:13:00,38.8,38.3,29.69,North,11,0.0,0.0,98,0.00,,---,0.02,VWS V13.01,2013-02-11 20:13:00,
2013-02-11 15:18:00,38.6,38.1,29.69,North,11,0.0,0.0,98,0.00,,---,0.02,VWS V13.01,2013-02-11 20:18:00,
2013-02-11 15:23:00,38.6,38.1,29.69,North,11,0.0,0.0,98,0.00,,---,0.02,VWS V13.01,2013-02-11 20:23:00,
2013-02-11 15:28:00,38.6,38.1,29.67,North,11,0.0,0.0,98,0.00,,---,0.02,VWS V13.01,2013-02-11 20:28:00,
2013-02-11 15:33:00,38.6,38.1,29.67,North,11,0.0,0.0,98,0.00,,---,0.02,VWS V13.01,2013-02-11 20:33:00,
2013-02-11 15:38:00,38.6,38.1,29.67,North,11,0.0,0.0,98,0.00,,---,0.02,VWS V13.01,2013-02-11 20:38:00,
2013-02-11 15:43:00,38.5,38.0,29.66,North,11,2.0,3.0,98,0.00,,---,0.02,VWS V13.01,2013-02-11 20:43:00,
2013-02-11 15:48:00,38.5,38.0,29.66,North,11,1.0,3.0,98,0.00,,---,0.02,VWS V13.01,2013-02-11 20:48:00,
2013-02-11 15:53:00,38.6,38.1,29.66,North,11,0.0,3.0,98,0.00,,---,0.02,VWS V13.01,2013-02-11 20:53:00,
2013-02-11 15:58:00,38.6,38.1,29.66,North,11,2.0,2.0,98,0.00,,---,0.02,VWS V13.01,2013-02-11 20:58:00,
2013-02-11 16:03:00,38.6,38.1,29.66,North,11,0.0,3.0,98,0.00,,---,0.02,VWS V13.01,2013-02-11 21:03:00,
2013-02-11 16:08:00,38.8,38.3,29.66,North,11,0.0,3.0,98,0.00,,---,0.02,VWS V13.01,2013-02-11 21:08:00,
2013-02-11 16:13:00,38.6,38.1,29.66,North,11,0.0,0.0,98,0.00,,---,0.02,VWS V13.01,2013-02-11 21:13:00,
2013-02-11 16:18:00,38.6,38.1,29.66,North,11,0.0,0.0,98,0.00,,---,0.02,VWS V13.01,2013-02-11 21:18:00,
2013-02-11 16:23:00,38.6,38.1,29.66,North,11,0.0,0.0,98,0.00,,---,0.02,VWS V13.01,2013-02-11 21:23:00,
2013-02-11 16:28:00,38.6,38.1,29.65,North,11,0.0,0.0,98,0.00,,---,0.02,VWS V13.01,2013-02-11 21:28:00,
2013-02-11 16:33:00,38.5,38.0,29.65,North,11,0.0,0.0,98,0.00,,---,0.02,VWS V13.01,2013-02-11 21:33:00,
2013-02-11 16:38:00,38.3,37.8,29.65,North,11,0.0,1.0,98,0.00,,---,0.02,VWS V13.01,2013-02-11 21:38:00,
2013-02-11 16:43:00,38.2,37.7,29.64,North,11,0.0,0.0,98,0.00,,---,0.02,VWS V13.01,2013-02-11 21:43:00,
2013-02-11 16:48:00,38.2,37.7,29.64,North,11,0.0,0.0,98,0.00,,---,0.02,VWS V13.01,2013-02-11 21:48:00,
2013-02-11 16:53:00,38.0,37.5,29.64,North,11,0.0,0.0,98,0.00,,---,0.02,VWS V13.01,2013-02-11 21:53:00,
2013-02-11 16:58:00,37.6,37.1,29.63,North,11,0.0,0.0,98,0.00,,---,0.02,VWS V13.01,2013-02-11 21:58:00,
2013-02-11 17:03:00,37.3,36.8,29.63,North,11,0.0,0.0,98,0.00,,---,0.02,VWS V13.01,2013-02-11 22:03:00,
2013-02-11 17:08:00,37.3,36.8,29.63,North,11,0.0,0.0,98,0.00,,---,0.02,VWS V13.01,2013-02-11 22:08:00,
2013-02-11 17:13:00,37.3,36.8,29.62,North,11,0.0,0.0,98,0.00,,---,0.02,VWS V13.01,2013-02-11 22:13:00,
2013-02-11 17:18:00,37.3,36.8,29.62,North,11,0.0,0.0,98,0.00,,---,0.02,VWS V13.01,2013-02-11 22:18:00,
2013-02-11 17:23:00,37.3,36.8,29.62,North,11,0.0,0.0,98,0.00,,---,0.02,VWS V13.01,2013-02-11 22:23:00,
2013-02-11 17:28:00,37.2,36.7,29.62,North,11,0.0,0.0,98,0.00,,---,0.02,VWS V13.01,2013-02-11 22:28:00,
2013-02-11 17:33:00,37.2,36.7,29.62,North,11,0.0,0.0,98,0.00,,---,0.02,VWS V13.01,2013-02-11 22:33:00,
2013-02-11 17:38:00,37.2,36.7,29.62,North,11,0.0,0.0,98,0.00,,---,0.02,VWS V13.01,2013-02-11 22:38:00,
2013-02-11 17:43:00,37.2,36.7,29.62,North,11,0.0,0.0,98,0.00,,---,0.02,VWS V13.01,2013-02-11 22:43:00,
2013-02-11 17:48:00,37.3,36.8,29.62,North,11,0.0,0.0,98,0.00,,---,0.02,VWS V13.01,2013-02-11 22:48:00,
2013-02-11 17:53:00,37.3,36.8,29.62,North,11,0.0,0.0,98,0.00,,---,0.02,VWS V13.01,2013-02-11 22:53:00,
2013-02-11 17:58:00,37.3,36.8,29.61,North,11,0.0,0.0,98,0.00,,---,0.02,VWS V13.01,2013-02-11 22:58:00,
2013-02-11 18:03:00,37.3,36.8,29.61,North,11,0.0,0.0,98,0.00,,---,0.02,VWS V13.01,2013-02-11 23:03:00,
2013-02-11 18:08:00,37.3,36.8,29.61,North,11,0.0,0.0,98,0.00,,---,0.02,VWS V13.01,2013-02-11 23:08:00,
2013-02-11 18:13:00,37.3,36.8,29.61,North,11,0.0,0.0,98,0.00,,---,0.02,VWS V13.01,2013-02-11 23:13:00,
2013-02-11 18:18:00,37.3,36.8,29.61,North,11,0.0,0.0,98,0.00,,---,0.02,VWS V13.01,2013-02-11 23:18:00,
2013-02-11 18:23:00,37.3,36.8,29.61,North,11,0.0,0.0,98,0.00,,---,0.02,VWS V13.01,2013-02-11 23:23:00,
2013-02-11 18:28:00,37.3,36.8,29.61,North,11,0.0,0.0,98,0.00,,---,0.02,VWS V13.01,2013-02-11 23:28:00,
2013-02-11 18:33:00,37.3,37.0,29.61,North,11,0.0,0.0,99,0.00,,---,0.02,VWS V13.01,2013-02-11 23:33:00,
2013-02-11 18:38:00,37.3,37.0,29.61,North,11,0.0,0.0,99,0.00,,---,0.02,VWS V13.01,2013-02-11 23:38:00,
2013-02-11 18:43:00,37.3,37.0,29.59,North,11,0.0,0.0,99,0.00,,---,0.02,VWS V13.01,2013-02-11 23:43:00,
2013-02-11 18:48:00,37.5,37.2,29.59,North,11,0.0,0.0,99,0.00,,---,0.02,VWS V13.01,2013-02-11 23:48:00,
2013-02-11 18:53:00,37.5,37.2,29.59,North,11,0.0,0.0,99,0.00,,---,0.02,VWS V13.01,2013-02-11 23:53:00,
2013-02-11 18:58:00,37.5,37.2,29.59,North,11,0.0,0.0,99,0.00,,---,0.02,VWS V13.01,2013-02-11 23:58:00,
2013-02-11 19:03:00,37.5,37.2,29.59,North,11,0.0,0.0,99,0.00,,---,0.02,VWS V13.01,2013-02-12 00:03:00,
2013-02-11 19:08:00,37.5,37.2,29.59,North,11,0.0,0.0,99,0.00,,---,0.02,VWS V13.01,2013-02-12 00:08:00,
2013-02-11 19:13:00,37.3,37.0,29.59,North,11,0.0,0.0,99,0.00,,---,0.02,VWS V13.01,2013-02-12 00:13:00,
2013-02-11 19:18:00,37.2,37.0,29.59,North,11,0.0,0.0,99,0.00,,---,0.02,VWS V13.01,2013-02-12 00:18:00,
2013-02-11 19:23:00,37.2,37.0,29.59,North,11,0.0,0.0,99,0.00,,---,0.02,VWS V13.01,2013-02-12 00:23:00,
2013-02-11 19:28:00,37.0,36.8,29.59,North,11,0.0,0.0,99,0.00,,---,0.02,VWS V13.01,2013-02-12 00:28:00,
2013-02-11 19:33:00,37.0,36.8,29.59,North,11,0.0,0.0,99,0.00,,---,0.02,VWS V13.01,2013-02-12 00:33:00,
2013-02-11 19:38:00,37.0,36.8,29.59,North,11,0.0,0.0,99,0.00,,---,0.02,VWS V13.01,2013-02-12 00:38:00,
2013-02-11 19:43:00,36.9,36.7,29.58,North,11,0.0,0.0,99,0.00,,---,0.02,VWS V13.01,2013-02-12 00:43:00,
2013-02-11 19:48:00,36.9,36.7,29.58,North,11,0.0,0.0,99,0.00,,---,0.02,VWS V13.01,2013-02-12 00:48:00,
2013-02-11 19:53:00,36.8,36.5,29.58,North,11,0.0,0.0,99,0.00,,---,0.02,VWS V13.01,2013-02-12 00:53:00,
2013-02-11 19:58:00,36.9,36.7,29.59,North,11,0.0,0.0,99,0.00,,---,0.02,VWS V13.01,2013-02-12 00:58:00,
2013-02-11 20:03:00,37.0,36.8,29.59,North,11,0.0,0.0,99,0.00,,---,0.02,VWS V13.01,2013-02-12 01:03:00,
2013-02-11 20:08:00,37.2,37.0,29.59,North,11,0.0,0.0,99,0.00,,---,0.02,VWS V13.01,2013-02-12 01:08:00,
2013-02-11 20:13:00,37.5,37.2,29.58,North,11,0.0,0.0,99,0.00,,---,0.02,VWS V13.01,2013-02-12 01:13:00,
2013-02-11 20:19:00,37.5,37.2,29.58,North,11,0.0,0.0,99,0.00,,---,0.02,VWS V13.01,2013-02-12 01:19:00,
2013-02-11 20:24:00,37.3,37.0,29.58,North,11,0.0,0.0,99,0.00,,---,0.02,VWS V13.01,2013-02-12 01:24:00,
2013-02-11 20:29:00,37.3,37.0,29.59,North,11,0.0,0.0,99,0.00,,---,0.02,VWS V13.01,2013-02-12 01:29:00,
2013-02-11 20:34:00,37.3,37.0,29.59,North,11,0.0,0.0,99,0.00,,---,0.02,VWS V13.01,2013-02-12 01:34:00,
2013-02-11 20:39:00,37.5,37.2,29.59,North,11,0.0,0.0,99,0.00,,---,0.02,VWS V13.01,2013-02-12 01:39:00,
2013-02-11 20:44:00,37.3,37.0,29.59,North,11,0.0,0.0,99,0.00,,---,0.02,VWS V13.01,2013-02-12 01:44:00,
2013-02-11 20:49:00,37.2,37.0,29.59,North,11,0.0,0.0,99,0.00,,---,0.02,VWS V13.01,2013-02-12 01:49:00,
2013-02-11 20:54:00,37.3,37.0,29.59,North,11,2.0,2.0,99,0.00,,---,0.02,VWS V13.01,2013-02-12 01:54:00,
2013-02-11 20:59:00,37.2,37.0,29.59,North,11,0.0,1.0,99,0.00,,---,0.02,VWS V13.01,2013-02-12 01:59:00,
2013-02-11 21:04:00,37.2,37.0,29.59,North,11,0.0,1.0,99,0.00,,---,0.02,VWS V13.01,2013-02-12 02:04:00,
2013-02-11 21:09:00,37.0,36.8,29.59,North,11,0.0,1.0,99,0.00,,---,0.02,VWS V13.01,2013-02-12 02:09:00,
2013-02-11 21:14:00,36.8,36.5,29.58,North,11,0.0,0.0,99,0.00,,---,0.02,VWS V13.01,2013-02-12 02:14:00,
2013-02-11 21:19:00,36.8,36.5,29.58,North,11,0.0,0.0,99,0.00,,---,0.02,VWS V13.01,2013-02-12 02:19:00,
2013-02-11 21:24:00,36.9,36.7,29.58,North,11,0.0,2.0,99,0.00,,---,0.02,VWS V13.01,2013-02-12 02:24:00,
2013-02-11 21:29:00,37.0,36.8,29.61,North,11,3.0,3.0,99,0.00,,---,0.02,VWS V13.01,2013-02-12 02:29:00,
2013-02-11 21:34:00,37.5,37.2,29.61,North,11,0.0,3.0,99,0.00,,---,0.02,VWS V13.01,2013-02-12 02:34:00,
2013-02-11 21:39:00,37.6,37.3,29.61,North,11,1.0,3.0,99,0.00,,---,0.02,VWS V13.01,2013-02-12 02:39:00,
2013-02-11 21:44:00,37.8,37.5,29.62,North,11,0.0,5.0,99,0.00,,---,0.02,VWS V13.01,2013-02-12 02:44:00,
2013-02-11 21:49:00,39.1,38.8,29.62,NW,324,0.0,5.0,99,0.00,,---,0.02,VWS V13.01,2013-02-12 02:49:00,
2013-02-11 21:54:00,39.6,39.3,29.62,NW,324,0.0,5.0,99,0.00,,---,0.02,VWS V13.01,2013-02-12 02:54:00,
2013-02-11 21:59:00,39.6,39.3,29.64,NW,324,0.0,0.0,99,0.00,,---,0.02,VWS V13.01,2013-02-12 02:59:00,
2013-02-11 22:04:00,39.9,39.6,29.64,NW,309,0.0,0.0,99,0.00,,---,0.02,VWS V13.01,2013-02-12 03:04:00,
2013-02-11 22:09:00,41.6,41.3,29.64,WNW,283,1.0,10.0,99,0.00,,---,0.02,VWS V13.01,2013-02-12 03:09:00,
2013-02-11 22:14:00,42.3,42.0,29.64,WNW,298,2.0,7.0,99,0.00,,---,0.02,VWS V13.01,2013-02-12 03:14:00,
2013-02-11 22:19:00,42.2,41.9,29.64,WNW,302,2.0,9.0,99,0.00,,---,0.02,VWS V13.01,2013-02-12 03:19:00,
2013-02-11 22:24:00,41.9,41.6,29.64,NW,308,3.0,9.0,99,0.00,,---,0.02,VWS V13.01,2013-02-12 03:24:00,
2013-02-11 22:29:00,41.8,41.5,29.65,WNW,300,0.0,4.0,99,0.00,,---,0.02,VWS V13.01,2013-02-12 03:29:00,
2013-02-11 22:34:00,41.6,41.3,29.65,WNW,300,0.0,4.0,99,0.00,,---,0.02,VWS V13.01,2013-02-12 03:34:00,
2013-02-11 22:39:00,41.2,40.9,29.65,WNW,300,2.0,4.0,99,0.00,,---,0.02,VWS V13.01,2013-02-12 03:39:00,
2013-02-11 22:44:00,41.1,40.8,29.65,WNW,300,0.0,4.0,99,0.00,,---,0.02,VWS V13.01,2013-02-12 03:44:00,
2013-02-11 22:49:00,40.9,40.6,29.65,WNW,297,2.0,4.0,99,0.00,,---,0.02,VWS V13.01,2013-02-12 03:49:00,
2013-02-11 22:54:00,40.6,40.3,29.65,WNW,295,0.0,4.0,99,0.00,,---,0.02,VWS V13.01,2013-02-12 03:54:00,
2013-02-11 22:59:00,40.5,40.2,29.65,WNW,295,2.0,2.0,99,0.00,,---,0.02,VWS V13.01,2013-02-12 03:59:00,
2013-02-11 23:05:00,40.2,39.9,29.65,WNW,293,0.0,3.0,99,0.00,,---,0.02,VWS V13.01,2013-02-12 04:05:00,
2013-02-11 23:10:00,40.1,39.8,29.65,WNW,290,1.0,4.0,99,0.00,,---,0.02,VWS V13.01,2013-02-12 04:10:00,
2013-02-11 23:16:00,39.9,39.6,29.65,WNW,290,2.0,2.0,99,0.00,,---,0.02,VWS V13.01,2013-02-12 04:16:00,
2013-02-11 23:21:00,39.8,39.5,29.65,WNW,290,2.0,4.0,99,0.00,,---,0.02,VWS V13.01,2013-02-12 04:21:00,
2013-02-11 23:26:00,39.5,39.2,29.66,WNW,286,1.0,4.0,99,0.00,,---,0.02,VWS V13.01,2013-02-12 04:26:00,
2013-02-11 23:31:00,39.5,39.2,29.66,WNW,286,0.0,6.0,99,0.00,,---,0.02,VWS V13.01,2013-02-12 04:31:00,
2013-02-11 23:36:00,39.3,39.0,29.66,WNW,286,0.0,6.0,99,0.00,,---,0.02,VWS V13.01,2013-02-12 04:36:00,
2013-02-11 23:41:00,39.2,38.9,29.67,WNW,286,0.0,0.0,99,0.00,,---,0.02,VWS V13.01,2013-02-12 04:41:00,
2013-02-11 23:47:00,38.9,38.6,29.67,WNW,286,0.0,0.0,99,0.00,,---,0.02,VWS V13.01,2013-02-12 04:47:00,
2013-02-11 23:52:00,38.8,38.5,29.67,WNW,286,0.0,0.0,99,0.00,,---,0.02,VWS V13.01,2013-02-12 04:52:00,
2013-02-11 23:57:00,38.6,38.3,29.67,WNW,286,0.0,4.0,99,0.00,,---,0.02,VWS V13.01,2013-02-12 04:57:00,